LOT2PC EDDF-EPWA

Flight info

Callsign LOT2PC
Flight time 1h 12m
Altitude 35000
Route SULUS7S/18 SULUS L984 OKG DCT BALTU DCT LEGAZ DCT LAGAR DCT OKENO Q277 AGAVA
Aircraft B38M/M-SDE1FGHILORVWXY/HB1

Departure

Time 2026-05-04 18:39
Airport Frankfurt Main Airport (EDDF)

Arrival

Time 2026-05-04 19:51
Airport Warsaw Chopin Airport (EPWA)
Time Latitude Longitude Altitude Speed Heading
2026-05-04 18:07 50.04435 8.56327 358 ft 0 kts 167°
2026-05-04 18:24 50.04435 8.56330 358 ft 0 kts 167°
2026-05-04 18:27 50.04445 8.56326 364 ft 4 kts 162°
2026-05-04 18:27 50.04467 8.56316 365 ft 4 kts 168°
2026-05-04 18:27 50.04491 8.56319 361 ft 4 kts 213°
2026-05-04 18:28 50.04508 8.56349 367 ft 4 kts 245°
2026-05-04 18:28 50.04515 8.56379 364 ft 0 kts 249°
2026-05-04 18:31 50.04513 8.56369 365 ft 2 kts 249°
2026-05-04 18:31 50.04505 8.56335 367 ft 5 kts 249°
2026-05-04 18:31 50.04491 8.56276 358 ft 7 kts 249°
2026-05-04 18:31 50.04471 8.56195 359 ft 9 kts 249°
2026-05-04 18:32 50.04447 8.56093 364 ft 11 kts 249°
2026-05-04 18:32 50.04430 8.56032 363 ft 1 kts 232°
2026-05-04 18:32 50.04426 8.56026 362 ft 2 kts 221°
2026-05-04 18:32 50.04409 8.56020 365 ft 3 kts 176°
2026-05-04 18:33 50.04384 8.56033 362 ft 5 kts 159°
2026-05-04 18:33 50.04342 8.56058 360 ft 8 kts 159°
2026-05-04 18:33 50.04279 8.56073 357 ft 11 kts 207°
2026-05-04 18:33 50.04245 8.55960 359 ft 13 kts 250°
2026-05-04 18:34 50.04211 8.55814 358 ft 16 kts 248°
2026-05-04 18:34 50.04164 8.55646 356 ft 18 kts 245°
2026-05-04 18:34 50.04126 8.55450 354 ft 20 kts 255°
2026-05-04 18:34 50.04075 8.55249 359 ft 20 kts 252°
2026-05-04 18:35 50.04024 8.55038 363 ft 22 kts 249°
2026-05-04 18:35 50.03968 8.54810 358 ft 20 kts 249°
2026-05-04 18:35 50.03917 8.54591 353 ft 23 kts 250°
2026-05-04 18:35 50.03850 8.54347 353 ft 26 kts 233°
2026-05-04 18:36 50.03768 8.54089 349 ft 28 kts 250°
2026-05-04 18:36 50.03698 8.53798 347 ft 30 kts 249°
2026-05-04 18:36 50.03623 8.53486 344 ft 29 kts 248°
2026-05-04 18:36 50.03563 8.53244 347 ft 24 kts 250°
2026-05-04 18:37 50.03502 8.52989 336 ft 23 kts 250°
2026-05-04 18:37 50.03444 8.52774 335 ft 23 kts 246°
2026-05-04 18:37 50.03389 8.52603 336 ft 16 kts 212°
2026-05-04 18:37 50.03281 8.52594 336 ft 17 kts 181°
2026-05-04 18:38 50.03044 8.52596 338 ft 64 kts 180°
2026-05-04 18:38 50.02392 8.52602 337 ft 124 kts 180°
2026-05-04 18:38 50.01358 8.52614 352 ft 170 kts 180°
2026-05-04 18:38 50.00124 8.52667 766 ft 180 kts 179°
2026-05-04 18:39 49.98849 8.52730 1328 ft 185 kts 182°
2026-05-04 18:39 49.97625 8.52774 2130 ft 179 kts 167°
2026-05-04 18:39 49.96480 8.53764 2433 ft 202 kts 133°
2026-05-04 18:39 49.95653 8.55649 2800 ft 224 kts 120°
2026-05-04 18:40 49.94828 8.57846 3328 ft 237 kts 120°
2026-05-04 18:40 49.94140 8.60269 3676 ft 260 kts 98°
2026-05-04 18:40 49.94019 8.63118 4381 ft 267 kts 95°
2026-05-04 18:40 49.93887 8.66003 5285 ft 269 kts 96°
2026-05-04 18:41 49.93438 8.68807 6104 ft 268 kts 121°
2026-05-04 18:41 49.92242 8.70996 6907 ft 267 kts 144°
2026-05-04 18:41 49.90742 8.72732 7682 ft 271 kts 146°
2026-05-04 18:41 49.89214 8.74488 8481 ft 275 kts 144°
2026-05-04 18:42 49.87990 8.76796 9287 ft 283 kts 122°
2026-05-04 18:42 49.87026 8.79489 9983 ft 289 kts 123°
2026-05-04 18:42 49.86024 8.82216 10289 ft 292 kts 123°
2026-05-04 18:42 49.85023 8.84961 10522 ft 293 kts 123°
2026-05-04 18:43 49.84018 8.87724 10688 ft 295 kts 123°
2026-05-04 18:43 49.83010 8.90497 10838 ft 296 kts 123°
2026-05-04 18:43 49.82001 8.93271 10950 ft 296 kts 123°
2026-05-04 18:43 49.80990 8.96052 10969 ft 296 kts 123°
2026-05-04 18:44 49.79978 8.98830 10965 ft 296 kts 123°
2026-05-04 18:44 49.79308 9.00672 10969 ft 296 kts 123°
2026-05-04 18:44 49.77952 9.04390 10969 ft 296 kts 123°
2026-05-04 18:44 49.76940 9.07162 10963 ft 296 kts 123°
2026-05-04 18:45 49.76091 9.10071 10952 ft 299 kts 109°
2026-05-04 18:45 49.75581 9.13197 10989 ft 300 kts 107°
2026-05-04 18:45 49.75080 9.16289 10966 ft 300 kts 107°
2026-05-04 18:45 49.74565 9.19467 11134 ft 307 kts 107°
2026-05-04 18:46 49.74028 9.22779 11461 ft 327 kts 107°
2026-05-04 18:46 49.73468 9.26239 11721 ft 346 kts 107°
2026-05-04 18:46 49.72865 9.29951 11923 ft 366 kts 107°
2026-05-04 18:46 49.72228 9.33869 12115 ft 384 kts 107°
2026-05-04 18:47 49.71564 9.37940 12399 ft 395 kts 107°
2026-05-04 18:47 49.70892 9.42056 13045 ft 396 kts 107°
2026-05-04 18:47 49.70211 9.46210 13605 ft 401 kts 107°
2026-05-04 18:47 49.69745 9.50486 14144 ft 408 kts 91°
2026-05-04 18:48 49.70244 9.54804 14720 ft 414 kts 70°
2026-05-04 18:48 49.71557 9.58775 15282 ft 418 kts 61°
2026-05-04 18:48 49.72853 9.62811 15826 ft 421 kts 65°
2026-05-04 18:48 49.74135 9.66899 16396 ft 424 kts 65°
2026-05-04 18:49 49.75442 9.71013 16937 ft 427 kts 64°
2026-05-04 18:49 49.76764 9.75151 17501 ft 431 kts 64°
2026-05-04 18:49 49.78097 9.79318 18119 ft 434 kts 64°
2026-05-04 18:49 49.79444 9.83527 18630 ft 438 kts 64°
2026-05-04 18:50 49.80800 9.87773 19142 ft 442 kts 64°
2026-05-04 18:50 49.82165 9.92055 19658 ft 445 kts 64°
2026-05-04 18:50 49.83542 9.96379 20161 ft 449 kts 65°
2026-05-04 18:50 49.84923 10.00724 20658 ft 452 kts 65°
2026-05-04 18:51 49.86321 10.05124 21112 ft 457 kts 65°
2026-05-04 18:51 49.87723 10.09553 21576 ft 460 kts 65°
2026-05-04 18:51 49.89139 10.14030 22072 ft 463 kts 65°
2026-05-04 18:51 49.90567 10.18554 22333 ft 468 kts 65°
2026-05-04 18:52 49.91997 10.23092 22523 ft 468 kts 65°
2026-05-04 18:52 49.93423 10.27625 22719 ft 469 kts 65°
2026-05-04 18:52 49.94854 10.32182 22964 ft 471 kts 65°
2026-05-04 18:52 49.96293 10.36772 23507 ft 473 kts 65°
2026-05-04 18:53 49.97739 10.41392 23865 ft 477 kts 65°
2026-05-04 18:53 49.99189 10.46037 24258 ft 479 kts 65°
2026-05-04 18:53 50.00646 10.50712 24631 ft 482 kts 65°
2026-05-04 18:53 50.02111 10.55420 24992 ft 485 kts 65°
2026-05-04 18:54 50.03587 10.60172 25327 ft 490 kts 65°
2026-05-04 18:54 50.05051 10.64896 25683 ft 492 kts 65°
2026-05-04 18:54 50.06478 10.69746 26034 ft 495 kts 71°
2026-05-04 18:54 50.07237 10.74947 26387 ft 494 kts 86°
2026-05-04 18:55 50.07396 10.80289 26709 ft 496 kts 90°
2026-05-04 18:55 50.07508 10.91077 27399 ft 501 kts 91°
2026-05-04 18:55 50.07520 10.96511 27774 ft 502 kts 92°
2026-05-04 18:56 50.07518 11.01945 28223 ft 501 kts 92°
2026-05-04 18:56 50.07511 11.07360 28662 ft 500 kts 92°
2026-05-04 18:56 50.07500 11.12769 29122 ft 499 kts 92°
2026-05-04 18:56 50.07487 11.18179 29572 ft 499 kts 92°
2026-05-04 18:57 50.07471 11.23578 30008 ft 498 kts 92°
2026-05-04 18:57 50.07453 11.28973 30376 ft 498 kts 92°
2026-05-04 18:57 50.07432 11.34343 30771 ft 496 kts 92°
2026-05-04 18:57 50.07409 11.39705 31180 ft 494 kts 92°
2026-05-04 18:58 50.07384 11.45059 31596 ft 493 kts 92°
2026-05-04 18:58 50.07356 11.50383 31993 ft 491 kts 92°
2026-05-04 18:58 50.07326 11.55684 32429 ft 489 kts 92°
2026-05-04 18:58 50.07294 11.60980 32781 ft 489 kts 92°
2026-05-04 18:59 50.07263 11.66277 33153 ft 488 kts 92°
2026-05-04 18:59 50.07229 11.71548 33539 ft 487 kts 92°
2026-05-04 18:59 50.07194 11.76804 33943 ft 485 kts 92°
2026-05-04 18:59 50.07156 11.81980 34283 ft 484 kts 92°
2026-05-04 19:00 50.07116 11.87206 34571 ft 483 kts 92°
2026-05-04 19:00 50.07073 11.92438 34841 ft 484 kts 92°
2026-05-04 19:00 50.07028 11.97679 34953 ft 485 kts 93°
2026-05-04 19:00 50.06981 12.02922 34955 ft 484 kts 93°
2026-05-04 19:01 50.06869 12.13394 34950 ft 483 kts 93°
2026-05-04 19:01 50.06740 12.23853 34947 ft 483 kts 93°
2026-05-04 19:02 50.06602 12.34314 34954 ft 483 kts 93°
2026-05-04 19:02 50.06716 12.44779 34961 ft 485 kts 88°
2026-05-04 19:03 50.07527 12.55187 34938 ft 487 kts 70°
2026-05-04 19:03 50.10409 12.64748 34958 ft 488 kts 67°
2026-05-04 19:04 50.13083 12.74498 34960 ft 489 kts 68°
2026-05-04 19:04 50.15688 12.84212 34966 ft 489 kts 68°
2026-05-04 19:05 50.18300 12.94008 34958 ft 489 kts 68°
2026-05-04 19:05 50.20902 13.03808 34965 ft 488 kts 68°
2026-05-04 19:06 50.23493 13.13613 34961 ft 488 kts 68°
2026-05-04 19:06 50.26077 13.23426 34956 ft 488 kts 68°
2026-05-04 19:07 50.28651 13.33249 34956 ft 488 kts 68°
2026-05-04 19:07 50.31219 13.43087 34954 ft 488 kts 68°
2026-05-04 19:08 50.33776 13.52929 34956 ft 488 kts 68°
2026-05-04 19:08 50.36326 13.62785 34954 ft 488 kts 68°
2026-05-04 19:09 50.38868 13.72651 34953 ft 488 kts 68°
2026-05-04 19:09 50.41404 13.82538 34954 ft 488 kts 68°
2026-05-04 19:10 50.43929 13.92424 34953 ft 488 kts 68°
2026-05-04 19:10 50.46429 14.02258 34941 ft 488 kts 68°
2026-05-04 19:11 50.48936 14.12161 34958 ft 487 kts 68°
2026-05-04 19:11 50.51291 14.22133 34958 ft 487 kts 72°
2026-05-04 19:12 50.54504 14.37289 34952 ft 487 kts 71°
2026-05-04 19:13 50.56659 14.47395 34949 ft 487 kts 71°
2026-05-04 19:13 50.58806 14.57507 34939 ft 487 kts 71°
2026-05-04 19:14 50.60938 14.67598 34947 ft 485 kts 71°
2026-05-04 19:14 50.63060 14.77691 34948 ft 486 kts 71°
2026-05-04 19:15 50.65174 14.87801 34949 ft 486 kts 71°
2026-05-04 19:15 50.67278 14.97911 34952 ft 486 kts 71°
2026-05-04 19:16 50.69023 15.06334 34958 ft 486 kts 71°
2026-05-04 19:16 50.71112 15.16467 34950 ft 484 kts 71°
2026-05-04 19:17 50.73185 15.26575 34955 ft 484 kts 71°
2026-05-04 19:17 50.75247 15.36684 34962 ft 484 kts 71°
2026-05-04 19:18 50.77305 15.46815 34955 ft 484 kts 71°
2026-05-04 19:18 50.79356 15.56969 34956 ft 487 kts 72°
2026-05-04 19:19 50.81396 15.67119 34953 ft 487 kts 71°
2026-05-04 19:19 50.83436 15.77325 34952 ft 486 kts 72°
2026-05-04 19:20 50.85464 15.87523 34958 ft 486 kts 72°
2026-05-04 19:20 50.87483 15.97731 34955 ft 486 kts 72°
2026-05-04 19:21 50.89496 16.07960 34951 ft 486 kts 72°
2026-05-04 19:21 50.91497 16.18181 34953 ft 486 kts 72°
2026-05-04 19:22 50.93490 16.28419 34946 ft 485 kts 72°
2026-05-04 19:22 50.95471 16.38653 34941 ft 484 kts 72°
2026-05-04 19:23 50.97439 16.48871 34936 ft 485 kts 72°
2026-05-04 19:23 50.99400 16.59107 34939 ft 485 kts 72°
2026-05-04 19:24 51.01339 16.69284 34938 ft 485 kts 72°
2026-05-04 19:24 51.03283 16.79538 34931 ft 484 kts 72°
2026-05-04 19:25 51.05216 16.89794 34938 ft 484 kts 72°
2026-05-04 19:25 51.07171 17.00046 34936 ft 485 kts 68°
2026-05-04 19:26 51.09777 17.09947 34934 ft 485 kts 66°
2026-05-04 19:26 51.12292 17.19913 34937 ft 485 kts 67°
2026-05-04 19:27 51.14784 17.29916 34936 ft 485 kts 67°
2026-05-04 19:27 51.17242 17.39835 34933 ft 484 kts 67°
2026-05-04 19:28 51.19702 17.49804 34935 ft 483 kts 67°
2026-05-04 19:28 51.22151 17.59776 34936 ft 484 kts 67°
2026-05-04 19:29 51.24597 17.69778 34938 ft 484 kts 67°
2026-05-04 19:29 51.27035 17.79798 34936 ft 484 kts 67°
2026-05-04 19:30 51.29466 17.89832 34937 ft 484 kts 67°
2026-05-04 19:30 51.31885 17.99860 34940 ft 482 kts 68°
2026-05-04 19:31 51.34288 18.09869 34940 ft 482 kts 68°
2026-05-04 19:31 51.36687 18.19909 34942 ft 483 kts 68°
2026-05-04 19:32 51.39081 18.29972 34937 ft 484 kts 68°
2026-05-04 19:32 51.41468 18.40057 34939 ft 484 kts 68°
2026-05-04 19:33 51.43844 18.50137 34748 ft 481 kts 68°
2026-05-04 19:33 51.45024 18.55163 33882 ft 484 kts 68°
2026-05-04 19:33 51.46197 18.60172 32856 ft 488 kts 68°
2026-05-04 19:33 51.47384 18.65251 32183 ft 485 kts 68°
2026-05-04 19:34 51.48566 18.70318 31268 ft 487 kts 68°
2026-05-04 19:34 51.49758 18.75446 30197 ft 493 kts 68°
2026-05-04 19:34 51.50960 18.80625 29078 ft 496 kts 68°
2026-05-04 19:34 51.52163 18.85818 28040 ft 497 kts 69°
2026-05-04 19:35 51.53367 18.91032 26963 ft 499 kts 69°
2026-05-04 19:35 51.54567 18.96243 26176 ft 495 kts 69°
2026-05-04 19:35 51.55756 19.01418 25398 ft 492 kts 69°
2026-05-04 19:35 51.56937 19.06568 24612 ft 489 kts 69°
2026-05-04 19:36 51.58108 19.11689 23854 ft 486 kts 69°
2026-05-04 19:36 51.59272 19.16791 23004 ft 484 kts 69°
2026-05-04 19:36 51.60425 19.21858 22219 ft 480 kts 70°
2026-05-04 19:36 51.61562 19.26866 21490 ft 475 kts 70°
2026-05-04 19:37 51.62692 19.31851 20772 ft 471 kts 70°
2026-05-04 19:37 51.63805 19.36777 20058 ft 467 kts 70°
2026-05-04 19:37 51.64909 19.41674 19408 ft 463 kts 70°
2026-05-04 19:37 51.66008 19.46563 18586 ft 463 kts 70°
2026-05-04 19:38 51.67096 19.51409 18008 ft 457 kts 70°
2026-05-04 19:38 51.68165 19.56184 17243 ft 452 kts 70°
2026-05-04 19:38 51.69239 19.60995 16332 ft 455 kts 70°
2026-05-04 19:38 51.70304 19.65771 15761 ft 449 kts 71°
2026-05-04 19:39 51.71351 19.70479 15214 ft 442 kts 71°
2026-05-04 19:39 51.72367 19.75059 14680 ft 436 kts 71°
2026-05-04 19:39 51.73384 19.79656 14114 ft 432 kts 71°
2026-05-04 19:39 51.74385 19.84187 13632 ft 427 kts 71°
2026-05-04 19:40 51.75377 19.88687 13000 ft 424 kts 71°
2026-05-04 19:40 51.76357 19.93140 12475 ft 419 kts 71°
2026-05-04 19:40 51.77324 19.97547 12019 ft 413 kts 71°
2026-05-04 19:40 51.78273 20.01881 11548 ft 408 kts 71°
2026-05-04 19:41 51.79209 20.06164 11219 ft 399 kts 71°
2026-05-04 19:41 51.80115 20.10320 11043 ft 387 kts 71°
2026-05-04 19:41 51.80997 20.14370 10873 ft 376 kts 71°
2026-05-04 19:41 51.81850 20.18298 10703 ft 365 kts 71°
2026-05-04 19:42 51.82681 20.22129 10519 ft 356 kts 71°
2026-05-04 19:42 51.83490 20.25869 10360 ft 350 kts 71°
2026-05-04 19:42 51.84290 20.29572 10188 ft 348 kts 71°
2026-05-04 19:42 51.85088 20.33271 9989 ft 348 kts 71°
2026-05-04 19:43 51.85883 20.36964 9621 ft 348 kts 71°
2026-05-04 19:43 51.86676 20.40658 9179 ft 347 kts 71°
2026-05-04 19:43 51.87466 20.44339 8792 ft 345 kts 71°
2026-05-04 19:43 51.88249 20.47999 8429 ft 342 kts 71°
2026-05-04 19:44 51.89023 20.51620 8070 ft 339 kts 71°
2026-05-04 19:44 51.89791 20.55220 7712 ft 337 kts 71°
2026-05-04 19:44 51.90552 20.58792 7355 ft 334 kts 71°
2026-05-04 19:44 51.91307 20.62343 7008 ft 332 kts 71°
2026-05-04 19:45 51.92055 20.65868 6652 ft 330 kts 71°
2026-05-04 19:45 51.92799 20.69378 6291 ft 328 kts 71°
2026-05-04 19:45 51.93538 20.72873 5919 ft 326 kts 71°
2026-05-04 19:45 51.94268 20.76335 5565 ft 324 kts 71°
2026-05-04 19:46 51.94996 20.79785 5222 ft 322 kts 71°
2026-05-04 19:46 51.95718 20.83216 4878 ft 320 kts 71°
2026-05-04 19:46 51.96433 20.86626 4573 ft 318 kts 71°
2026-05-04 19:46 51.97138 20.89987 4415 ft 311 kts 71°
2026-05-04 19:47 51.97827 20.93279 4267 ft 307 kts 71°
2026-05-04 19:47 51.98502 20.96508 4109 ft 306 kts 71°
2026-05-04 19:47 51.99177 20.99741 3918 ft 299 kts 71°
2026-05-04 19:47 51.99883 21.02879 3621 ft 295 kts 63°
2026-05-04 19:48 52.01119 21.05474 3157 ft 287 kts 38°
2026-05-04 19:48 52.02807 21.06955 2906 ft 268 kts 13°
2026-05-04 19:48 52.04590 21.07141 2644 ft 248 kts 346°
2026-05-04 19:48 52.06059 21.06152 2410 ft 214 kts 322°
2026-05-04 19:49 52.07215 21.04887 2187 ft 186 kts 326°
2026-05-04 19:49 52.08280 21.03940 1949 ft 163 kts 328°
2026-05-04 19:49 52.09239 21.03113 1746 ft 153 kts 327°
2026-05-04 19:49 52.10182 21.02291 1536 ft 154 kts 328°
2026-05-04 19:50 52.11126 21.01461 1357 ft 154 kts 329°
2026-05-04 19:50 52.12086 21.00641 1156 ft 158 kts 330°
2026-05-04 19:50 52.13061 20.99794 945 ft 159 kts 330°
2026-05-04 19:50 52.14027 20.98933 688 ft 155 kts 330°
2026-05-04 19:51 52.14977 20.98115 508 ft 154 kts 330°
2026-05-04 19:51 52.15878 20.97317 351 ft 138 kts 333°
2026-05-04 19:51 52.16532 20.96749 351 ft 72 kts 332°
2026-05-04 19:51 52.16844 20.96522 339 ft 38 kts 354°
2026-05-04 19:52 52.17021 20.96515 340 ft 12 kts
2026-05-04 19:52 52.17057 20.96519 341 ft 1 kts
2026-05-04 19:52 52.17067 20.96524 341 ft 2 kts 23°
2026-05-04 19:52 52.17086 20.96558 337 ft 7 kts 60°
2026-05-04 19:53 52.17115 20.96647 338 ft 11 kts 62°
2026-05-04 19:53 52.17152 20.96760 339 ft 11 kts 60°
2026-05-04 19:53 52.17156 20.96839 341 ft 7 kts 137°
2026-05-04 19:53 52.17117 20.96875 341 ft 7 kts 152°
2026-05-04 19:54 52.17077 20.96911 337 ft 7 kts 151°
2026-05-04 19:54 52.17037 20.96947 340 ft 6 kts 147°
2026-05-04 19:54 52.17028 20.97006 341 ft 6 kts 75°
2026-05-04 19:54 52.17040 20.97066 339 ft 6 kts 71°
2026-05-04 19:55 52.17047 20.97101 340 ft 0 kts 70°